This is the latest recevied weather packets stored in our database for station/object KF0JJO. If no packets are shown the sender has not sent any weather packets the latest 10 day(s).
| Time | Temp. | Humidity | Pressure | Rain* | Wind** | Luminosity | Snow |
|---|---|---|---|---|---|---|---|
| 1777749158 | 18.89° C | 28% | 1046.1 hPa | 0 mm | - | 772 W/m² | - |
| 1777748855 | 18.89° C | 26% | 1046.1 hPa | 0 mm | - | 422 W/m² | - |
| 1777748553 | 18.89° C | 27% | 1046.3 hPa | 0 mm | - | 938 W/m² | - |
| 1777748253 | 18.33° C | 26% | 1046.3 hPa | 0 mm | - | 1061 W/m² | - |
| 1777747949 | 18.33° C | 27% | 1046.4 hPa | 0 mm | - | 980 W/m² | - |
| 1777747646 | 18.33° C | 28% | 1046.7 hPa | 0 mm | - | 946 W/m² | - |
| 1777747341 | 18.33° C | 26% | 1046.7 hPa | 0 mm | - | 941 W/m² | - |
| 1777747038 | 18.33° C | 27% | 1046.7 hPa | 0 mm | - | 815 W/m² | - |
| 1777746734 | 18.89° C | 27% | 1046.8 hPa | 0 mm | - | 804 W/m² | - |
| 1777746430 | 18.33° C | 26% | 1047 hPa | 0 mm | - | 924 W/m² | - |
| 1777746125 | 17.78° C | 26% | 1047.1 hPa | 0 mm | - | 915 W/m² | - |
| 1777745823 | 17.78° C | 27% | 1047.3 hPa | 0 mm | - | 873 W/m² | - |
| 1777745522 | 17.78° C | 29% | 1047.1 hPa | 0 mm | - | 884 W/m² | - |
| 1777745218 | 17.22° C | 30% | 1047.2 hPa | 0 mm | - | 861 W/m² | - |
| 1777744916 | 17.22° C | 27% | 1047.3 hPa | 0 mm | - | 855 W/m² | - |
| 1777744615 | 16.67° C | 28% | 1047.4 hPa | 0 mm | - | 880 W/m² | - |
| 1777744311 | 17.22° C | 26% | 1047.3 hPa | 0 mm | - | 838 W/m² | - |
| 1777744008 | 17.22° C | 26% | 1047.6 hPa | 0 mm | - | 847 W/m² | - |
| 1777743704 | 16.67° C | 28% | 1047.7 hPa | 0 mm | - | 810 W/m² | - |
| 1777743402 | 16.67° C | 28% | 1047.8 hPa | 0 mm | - | 870 W/m² | - |
| 1777743100 | 16.67° C | 28% | 1047.9 hPa | 0 mm | - | 740 W/m² | - |
| 1777742797 | 16.11° C | 29% | 1047.9 hPa | 0 mm | - | 211 W/m² | - |
| 1777742493 | 15.56° C | 30% | 1048.2 hPa | 0 mm | - | 300 W/m² | - |
| 1777742188 | 15.56° C | 30% | 1048 hPa | 0 mm | - | 179 W/m² | - |
| 1777741886 | 15.56° C | 30% | 1048.2 hPa | 0 mm | - | 161 W/m² | - |
* Rain latest hour (hover to see other rain measurements)
** Current wind speed in m/s (hover to see current wind gust speed)